DW6366 Heerjansdam NL current weather conditions

sailwx.info

Wind from 294 at 0 knots gusting 2

Air temperature 18.3° C
Dewpoint 16.5° C

Last reported at 2018-Jul-22 06:03 UTC.
Time now 2018-Jul-22 06:32 UTC

Location: N 51°50' E 004°34'.
View on Google Maps.

See reports from other nearby stations

  
Tides and Currents Weather Stations Pressure Air Temp Water Temp Dewpoint Dewpoint Depression Visibility Wind Speed Wind Dir Waves Ship Positions
date/time (UTC)wind fromknots sea level pressurealtimeterstation pressurevisibilityair tempwater tempwave heightnotes
2018-Jul-22 06:03 294 0 gusting 2 18.3
2018-Jul-22 05:52 294 17.8
2018-Jul-22 05:32 294 16.7
2018-Jul-22 05:22 294 16.1
2018-Jul-22 05:12 294 16.1
2018-Jul-22 05:02 294 15.6
2018-Jul-22 04:52 294 15.6
2018-Jul-22 04:42 294 15.0
2018-Jul-22 04:32 294 15.0
2018-Jul-22 04:22 294 15.0
2018-Jul-22 04:12 294 15.0
2018-Jul-22 04:03 294 15.0
2018-Jul-22 03:52 294 15.0
2018-Jul-22 03:42 294 15.6
2018-Jul-22 03:32 294 15.6
2018-Jul-22 03:12 294 15.6
2018-Jul-22 03:02 294 16.1
2018-Jul-22 02:52 294 16.1
2018-Jul-22 02:42 294 16.1
2018-Jul-22 02:32 294 16.1
2018-Jul-22 02:22 294 16.1
2018-Jul-22 02:12 294 16.1
2018-Jul-22 02:03 294 16.1
2018-Jul-22 01:52 294 16.1
2018-Jul-22 01:42 294 0 gusting 3 16.1
2018-Jul-22 01:32 294 0 gusting 1 16.1
2018-Jul-22 01:22 294 16.1
2018-Jul-22 01:12 294 16.1
2018-Jul-22 01:02 294 16.1
2018-Jul-22 00:52 294 16.7
2018-Jul-22 00:42 294 16.7
2018-Jul-22 00:32 294 16.7
2018-Jul-22 00:22 294 0 gusting 1 16.7
2018-Jul-22 00:12 294 0 gusting 1 16.7
2018-Jul-22 00:02 294 0 gusting 1 16.7
2018-Jul-21 23:52 294 0 gusting 2 17.2
2018-Jul-21 23:42 294 1 gusting 2 17.2
2018-Jul-21 23:32 307 0 gusting 1 17.2
2018-Jul-21 23:22 306 17.2
2018-Jul-21 23:12 306 17.8
2018-Jul-21 23:03 307 17.8
2018-Jul-21 22:52 307 18.3
2018-Jul-21 22:42 307 18.3
2018-Jul-21 22:32 306 18.3
2018-Jul-21 22:22 306 18.9
2018-Jul-21 22:12 307 0 gusting 3 18.9
2018-Jul-21 21:52 308 0 gusting 2 18.9
2018-Jul-21 21:42 301 18.9
2018-Jul-21 21:32 334 19.4
2018-Jul-21 21:22 329 19.4
2018-Jul-21 21:12 334 19.4
2018-Jul-21 21:03 322 0 gusting 3 19.4
2018-Jul-21 20:52 338 19.4
2018-Jul-21 20:42 357 20.0
2018-Jul-21 20:32 324 0 gusting 5 20.0
2018-Jul-21 20:22 340 1 gusting 5 20.0
2018-Jul-21 20:12 331 0 gusting 5 20.0
2018-Jul-21 20:02 311 3 gusting 5 20.6
2018-Jul-21 19:52 012 0 gusting 4 20.6
2018-Jul-21 19:42 348 0 gusting 5 20.6
2018-Jul-21 19:32 311 0 gusting 8 21.1
2018-Jul-21 19:22 298 2 gusting 8 21.1
2018-Jul-21 19:12 309 3 gusting 8 21.7
2018-Jul-21 19:03 357 0 gusting 5 21.7
2018-Jul-21 18:52 297 2 gusting 9 22.2
2018-Jul-21 18:42 340 2 gusting 8 22.8
2018-Jul-21 18:32 301 3 gusting 6 22.8
2018-Jul-21 18:22 328 3 gusting 9 22.8
2018-Jul-21 18:12 353 1 gusting 8 23.3
2018-Jul-21 18:02 322 0 gusting 8 23.9
2018-Jul-21 17:52 316 3 gusting 11 24.4
2018-Jul-21 17:42 321 3 gusting 9 24.4
2018-Jul-21 17:32 291 2 gusting 8 24.4
2018-Jul-21 17:22 128 1 gusting 9 24.4
2018-Jul-21 17:12 338 3 gusting 8 24.4
2018-Jul-21 17:02 315 4 gusting 9 25.0
2018-Jul-21 16:52 294 3 gusting 13 25.0
2018-Jul-21 16:42 002 6 gusting 13 25.0
2018-Jul-21 16:32 304 6 gusting 13 25.6
2018-Jul-21 16:22 288 7 gusting 12 26.1
2018-Jul-21 16:12 276 5 gusting 9 26.7
2018-Jul-21 16:02 290 4 gusting 9 26.7
2018-Jul-21 15:52 289 6 gusting 11 26.7
2018-Jul-21 15:42 283 3 gusting 13 26.1
2018-Jul-21 15:32 301 4 gusting 12 26.7
2018-Jul-21 15:22 338 6 gusting 11 26.7
2018-Jul-21 15:12 284 5 gusting 12 27.2
2018-Jul-21 15:03 311 5 gusting 12 26.7
2018-Jul-21 14:52 290 3 gusting 9 27.2
2018-Jul-21 14:42 295 3 gusting 12 27.2
2018-Jul-21 14:32 276 3 gusting 10 27.8
2018-Jul-21 14:22 332 6 gusting 9 27.8
2018-Jul-21 14:12 305 1 gusting 7 27.8
2018-Jul-21 14:03 293 4 gusting 8 27.8
2018-Jul-21 13:52 289 2 gusting 6 27.8
2018-Jul-21 13:42 275 2 gusting 9 27.2
2018-Jul-21 13:32 037 1 gusting 9 27.2
2018-Jul-21 13:22 312 2 gusting 8 27.2
2018-Jul-21 13:12 332 5 gusting 11 26.7
2018-Jul-21 13:02 297 3 gusting 10 27.2
2018-Jul-21 12:52 300 3 gusting 11 27.2
2018-Jul-21 12:42 312 5 gusting 9 27.2
2018-Jul-21 12:32 313 4 gusting 10 27.2
2018-Jul-21 12:22 327 2 gusting 8 27.2
2018-Jul-21 12:12 056 2 gusting 9 27.2
2018-Jul-21 12:02 319 5 gusting 9 27.2
2018-Jul-21 11:52 353 0 gusting 4 27.2
2018-Jul-21 11:32 350 1 gusting 8 26.7
2018-Jul-21 11:22 322 5 gusting 7 26.7
2018-Jul-21 11:12 303 2 gusting 6 26.7
2018-Jul-21 10:52 024 2 gusting 7 26.1
2018-Jul-21 10:42 311 1 gusting 4 26.7
2018-Jul-21 10:32 350 0 gusting 4 26.1
2018-Jul-21 10:22 358 0 gusting 7 26.1
2018-Jul-21 10:02 353 0 gusting 6 26.1
2018-Jul-21 09:52 317 1 gusting 7 25.6
2018-Jul-21 09:42 328 3 gusting 7 25.6
2018-Jul-21 09:32 002 2 gusting 5 25.6
2018-Jul-21 09:22 297 1 gusting 5 24.4
2018-Jul-21 09:12 318 4 gusting 6 24.4
2018-Jul-21 09:02 007 3 gusting 9 24.4
2018-Jul-21 08:52 292 2 gusting 6 24.4
2018-Jul-21 08:42 305 2 gusting 6 25.0
2018-Jul-21 08:32 007 0 gusting 3 24.4
2018-Jul-21 08:22 320 2 gusting 6 23.9
2018-Jul-21 08:12 301 1 gusting 6 23.3
2018-Jul-21 07:52 346 0 gusting 3 22.8
2018-Jul-21 07:42 002 22.2
2018-Jul-21 07:32 343 0 gusting 3 22.2
2018-Jul-21 07:22 322 1 gusting 7 21.7
2018-Jul-21 07:12 012 0 gusting 4 21.7
2018-Jul-21 07:03 343 21.1
2018-Jul-21 06:52 002 0 gusting 7 21.1
2018-Jul-21 06:42 002 0 gusting 4 20.6
2018-Jul-21 06:32 336 0 gusting 3 20.0
2018-Jul-21 06:22 354 0 gusting 4 19.4
2018-Jul-21 06:12 307 2 gusting 6 19.4
2018-Jul-21 06:03 287 1 gusting 4 19.4
2018-Jul-21 05:52 032 0 gusting 3 18.9
2018-Jul-21 05:42 320 0 gusting 2 18.3
2018-Jul-21 05:32 302 18.3
2018-Jul-21 05:22 312 18.3
2018-Jul-21 05:12 310 17.8
2018-Jul-21 05:03 309 17.8
2018-Jul-21 04:42 300 17.8
2018-Jul-21 04:32 300 17.8
2018-Jul-21 04:22 298 18.3
2018-Jul-21 04:12 293 18.3
2018-Jul-21 04:02 319 18.3
2018-Jul-21 03:52 319 0 gusting 2 18.3
2018-Jul-21 03:42 307 18.3
2018-Jul-21 03:32 357 18.9
2018-Jul-21 03:22 320 0 gusting 3 18.9
2018-Jul-21 03:12 321 0 gusting 4 18.9
2018-Jul-21 03:02 285 1 gusting 4 19.4
2018-Jul-21 02:52 293 19.4
2018-Jul-21 02:42 292 0 gusting 6 19.4
2018-Jul-21 02:32 045 19.4
2018-Jul-21 02:12 316 19.4
2018-Jul-21 02:03 324 19.4
2018-Jul-21 01:52 345 19.4
2018-Jul-21 01:42 309 1 gusting 3 19.4
2018-Jul-21 01:32 325 20.0
2018-Jul-21 01:22 299 0 gusting 4 20.0
2018-Jul-21 01:12 302 1 gusting 3 20.0
2018-Jul-21 01:03 321 0 gusting 3 20.0
2018-Jul-21 00:42 357 20.0
2018-Jul-21 00:32 307 0 gusting 3 20.0
2018-Jul-21 00:22 341 20.0
2018-Jul-21 00:12 352 20.0
2018-Jul-21 00:02 002 20.0
2018-Jul-20 23:52 002 20.0
2018-Jul-20 23:42 002 20.0
2018-Jul-20 23:32 333 20.0
2018-Jul-20 23:22 340 20.0
2018-Jul-20 23:12 331 1 gusting 3 20.0
2018-Jul-20 23:03 338 1 gusting 3 20.0
2018-Jul-20 22:52 301 0 gusting 3 20.0
2018-Jul-20 22:42 303 0 gusting 4 20.0
2018-Jul-20 22:32 358 20.0
2018-Jul-20 22:22 346 20.0
2018-Jul-20 22:12 322 20.0
2018-Jul-20 21:52 350 0 gusting 4 20.6
2018-Jul-20 21:42 016 20.6
2018-Jul-20 21:32 012 0 gusting 5 20.6
2018-Jul-20 21:22 350 0 gusting 2 20.6
2018-Jul-20 21:02 029 20.6
2018-Jul-20 20:52 051 20.6
2018-Jul-20 20:42 355 21.1
2018-Jul-20 20:22 340 21.1
2018-Jul-20 20:12 344 0 gusting 6 21.1
2018-Jul-20 20:02 305 1 gusting 6 21.7
2018-Jul-20 19:52 007 0 gusting 4 21.7
2018-Jul-20 19:42 330 0 gusting 5 21.7
2018-Jul-20 19:32 324 1 gusting 5 22.2
2018-Jul-20 19:22 294 2 gusting 6 22.2
2018-Jul-20 19:12 349 0 gusting 6 22.2
2018-Jul-20 19:03 336 0 gusting 5 22.2
2018-Jul-20 18:52 338 2 gusting 7 22.2
2018-Jul-20 18:42 310 2 gusting 4 22.8
2018-Jul-20 18:32 343 0 gusting 6 22.8
2018-Jul-20 18:22 332 1 gusting 5 22.8
2018-Jul-20 18:03 322 1 gusting 4 23.3
2018-Jul-20 17:52 309 2 gusting 4 23.3
2018-Jul-20 17:42 345 0 gusting 4 23.3
2018-Jul-20 17:22 305 0 gusting 4 23.9
2018-Jul-20 17:12 311 0 gusting 7 23.9
2018-Jul-20 17:03 002 0 gusting 4 24.4
2018-Jul-20 16:52 313 2 gusting 6 24.4
2018-Jul-20 16:42 339 0 gusting 7 24.4
2018-Jul-20 16:32 347 1 gusting 8 25.0
2018-Jul-20 16:22 295 4 gusting 8 25.6
2018-Jul-20 16:12 351 0 gusting 4 25.6
2018-Jul-20 15:52 302 0 gusting 5 26.1
2018-Jul-20 15:42 340 25.6
2018-Jul-20 15:32 320 1 gusting 8 25.0
2018-Jul-20 15:22 354 1 gusting 6 25.0
2018-Jul-20 15:12 012 2 gusting 8 26.1
2018-Jul-20 15:02 291 1 gusting 4 26.1
2018-Jul-20 14:52 303 1 gusting 6 26.1
2018-Jul-20 14:42 300 0 gusting 6 26.1
2018-Jul-20 14:32 358 0 gusting 5 26.7
2018-Jul-20 14:22 310 5 gusting 7 27.8
2018-Jul-20 14:12 002 0 gusting 6 26.7
2018-Jul-20 14:03 033 26.7
2018-Jul-20 13:52 029 0 gusting 6 26.7
2018-Jul-20 13:42 002 1 gusting 7 27.2
2018-Jul-20 13:22 349 26.1
2018-Jul-20 13:12 311 2 gusting 7 26.1
2018-Jul-20 13:02 328 1 gusting 6 26.1
2018-Jul-20 12:52 302 0 gusting 6 26.1
2018-Jul-20 12:42 324 0 gusting 6 27.2
2018-Jul-20 12:32 318 1 gusting 8 26.7
2018-Jul-20 12:22 016 0 gusting 6 26.7
2018-Jul-20 12:12 349 0 gusting 5 26.7
2018-Jul-20 12:02 107 0 gusting 5 26.7
2018-Jul-20 11:52 031 1 gusting 6 25.6
2018-Jul-20 11:42 268 1 gusting 3 25.6
2018-Jul-20 11:32 073 2 gusting 6 25.6
2018-Jul-20 11:22 002 1 gusting 5 25.6
2018-Jul-20 11:12 012 0 gusting 5 26.1
2018-Jul-20 11:03 339 1 gusting 6 25.6
2018-Jul-20 10:52 353 0 gusting 6 25.6
2018-Jul-20 10:42 316 1 gusting 7 25.0
2018-Jul-20 10:32 329 0 gusting 5 25.0
2018-Jul-20 10:22 355 1 gusting 5 25.0
2018-Jul-20 10:12 002 1 gusting 5 25.6
2018-Jul-20 10:02 049 1 gusting 6 25.0
2018-Jul-20 09:52 278 2 gusting 5 25.0
2018-Jul-20 09:42 281 4 gusting 7 25.0
2018-Jul-20 09:32 290 2 gusting 5 25.0
2018-Jul-20 09:22 312 1 gusting 5 24.4
2018-Jul-20 09:12 357 0 gusting 3 24.4
2018-Jul-20 09:03 343 0 gusting 4 23.9
2018-Jul-20 08:52 002 2 gusting 6 23.9
2018-Jul-20 08:42 021 1 gusting 6 23.9
2018-Jul-20 08:32 033 23.3
2018-Jul-20 08:22 347 1 gusting 3 22.8
2018-Jul-20 08:12 357 0 gusting 4 22.2
2018-Jul-20 08:02 291 1 gusting 3 22.2
2018-Jul-20 07:52 002 0 gusting 3 21.7
2018-Jul-20 07:42 344 0 gusting 3 21.1
2018-Jul-20 07:32 007 1 gusting 4 20.6
2018-Jul-20 07:22 044 20.0
2018-Jul-20 07:12 298 1 gusting 3 19.4
2018-Jul-20 07:02 348 19.4
2018-Jul-20 06:52 318 18.9
2018-Jul-20 06:42 347 18.3
2018-Jul-20 06:32 350 17.8
2018-Jul-20 06:22 350 17.2
2018-Jul-20 06:12 349 17.2
2018-Jul-20 06:03 002 16.7